Wind_Speed
56 56 58 57 56 57 57 57 55 51 46 43 46 48 46 44 44 44 44 40 33 26 23 21 19 17 17 18 17 16 17 19 17 11 8 7 7 7 9 9 10 10 9 9 10 11 12 12 13 14 15 17 19 20 21 22 22 21 20 18 17 16 15
57 57 58 59 58 57 58 58 54 49 48 47 47 49 49 48 48 48 46 42 38 34 30 25 22 20 19 17 16 15 16 14 10 6 6 5 5 7 10 11 12 12 10 10 11 12 13 14 14 14 14 14 15 17 18 20 20 19 19 18 17 16 14
56 57 59 61 61 61 62 59 54 53 55 52 50 52 54 52 52 52 49 45 41 38 33 27 23 22 20 16 15 15 14 10 6 6 7 7 8 9 10 11 13 12 11 11 12 13 14 15 15 14 12 11 11 13 15 16 16 16 16 15 15 14 13
56 59 62 63 63 63 64 62 60 60 59 55 51 53 55 54 54 53 51 48 44 37 32 28 25 22 20 17 16 16 13 9 8 8 9 10 11 11 11 11 12 12 12 13 14 15 16 16 16 14 12 10 9 9 11 12 13 13 13 13 13 13 13
57 60 62 63 63 64 65 65 65 64 62 60 55 53 55 56 55 54 53 51 46 37 31 29 25 22 20 16 15 15 13 10 10 10 12 13 13 12 12 13 13 14 14 15 17 18 17 17 16 14 12 10 9 8 9 11 12 12 13 13 13 13 13
58 60 60 60 61 64 64 65 65 64 62 61 58 56 57 57 58 57 56 55 49 40 33 30 27 24 22 18 16 16 14 13 14 14 15 15 15 15 15 16 17 17 17 17 19 19 17 15 14 13 11 10 9 9 9 10 11 12 13 13 13 12 13
57 58 57 58 60 63 65 66 66 64 63 62 61 60 57 57 58 59 58 57 53 44 36 31 27 25 24 22 20 18 15 15 16 18 18 18 19 19 19 20 21 20 20 19 20 20 16 13 12 11 10 10 10 9 9 9 10 11 12 12 12 12 14
56 55 55 56 57 60 65 68 68 66 66 65 63 61 57 56 58 58 58 59 56 47 38 32 29 26 25 25 22 19 17 16 18 20 20 21 23 21 20 23 24 23 21 21 21 20 16 13 11 10 8 8 8 9 9 9 11 11 11 12 12 14 16
56 55 55 56 58 59 63 66 68 68 67 66 66 64 60 60 60 59 59 60 57 48 38 35 33 30 28 27 25 23 21 19 19 20 21 23 24 21 19 22 24 23 22 22 21 20 17 15 13 9 8 8 9 9 9 10 11 12 12 13 15 17 19
58 59 60 60 60 60 62 63 65 67 68 69 69 68 67 67 65 62 63 63 57 47 39 37 36 34 32 28 25 25 23 21 21 21 21 24 25 21 20 22 22 23 23 23 22 20 17 16 14 11 10 10 10 10 10 11 12 13 13 15 16 18 20
57 59 60 59 56 56 59 60 60 63 67 68 69 71 71 69 67 66 65 61 54 46 40 38 38 37 35 31 28 26 23 22 23 24 25 26 25 22 22 22 22 23 24 24 22 19 17 15 14 13 12 12 11 11 11 12 12 13 14 15 17 18 20
54 54 55 54 51 50 52 54 55 57 61 64 67 69 70 67 67 66 61 56 53 47 40 38 39 38 38 36 33 29 24 23 26 27 28 26 24 22 23 23 23 24 25 24 22 19 17 16 14 13 12 12 12 12 12 12 12 13 14 16 17 19 20
50 50 49 49 49 47 46 48 50 51 55 59 62 65 66 66 67 65 56 52 52 47 42 40 38 37 36 34 31 27 23 23 25 25 24 24 23 23 23 22 22 23 24 24 22 19 18 16 15 14 13 12 13 13 13 13 13 14 16 17 18 19 20
47 45 44 45 47 46 45 46 46 47 50 54 57 60 63 65 66 63 57 54 51 46 44 42 39 37 34 30 28 25 21 20 22 21 21 23 24 23 20 19 19 20 21 22 20 18 16 16 16 15 14 14 13 14 14 15 17 18 19 20 20 20 20
44 42 41 42 44 44 45 47 47 46 47 51 54 57 60 63 64 62 59 57 53 47 44 43 41 38 34 29 26 23 20 20 21 20 21 23 23 20 17 16 18 20 21 21 19 17 17 16 16 16 16 15 15 16 17 19 21 22 23 24 24 24 23
43 40 38 40 40 40 43 47 48 48 48 50 53 55 59 62 63 61 61 59 55 48 45 44 42 38 34 30 27 25 24 23 21 20 21 21 21 19 17 18 19 21 23 22 20 19 19 18 17 18 19 18 18 20 21 22 24 26 27 27 28 28 28
43 40 38 39 39 40 45 51 52 50 50 51 53 55 58 60 61 61 61 59 55 49 45 43 41 37 34 31 30 28 28 26 25 24 23 22 21 20 20 21 22 24 24 24 22 22 22 21 21 22 23 22 23 24 25 26 27 28 29 30 31 32 32
44 41 41 41 42 45 50 54 53 52 51 51 52 55 57 58 60 61 60 57 54 49 43 40 38 36 35 33 31 29 27 27 26 26 26 26 24 24 25 27 27 27 27 27 26 26 26 25 25 26 26 26 27 28 28 29 29 30 31 32 34 34 34
45 44 43 44 46 48 51 51 51 51 50 49 50 54 56 57 59 60 58 55 53 48 41 37 36 37 37 35 33 29 27 26 26 26 26 27 26 27 30 32 31 30 29 29 29 29 29 29 29 29 29 29 30 31 31 30 31 32 32 33 35 36 36
46 45 46 47 47 48 49 48 47 47 49 50 51 54 57 58 59 59 57 53 50 44 39 36 37 38 38 37 35 31 28 26 26 27 27 27 28 31 32 33 33 32 31 30 31 31 31 31 31 31 31 32 33 33 32 32 33 34 34 34 36 38 39
46 48 49 49 48 47 48 47 45 45 47 50 52 54 57 58 58 57 55 51 46 42 39 38 39 38 38 38 37 34 30 27 27 28 29 29 32 34 34 35 35 35 34 34 33 33 32 32 32 33 33 34 34 34 34 34 34 35 36 37 39 41 43
48 50 52 51 49 48 47 46 44 43 44 46 49 53 57 58 57 55 52 48 44 41 40 41 40 38 39 39 37 34 31 28 29 30 31 32 35 37 37 38 39 38 37 35 34 34 33 33 34 35 36 36 36 35 35 35 36 37 38 41 42 44 46
49 51 52 52 50 48 46 44 41 39 40 41 43 50 57 56 54 52 48 45 44 42 41 41 39 39 40 39 36 33 31 31 32 32 33 35 38 38 39 40 40 39 37 35 34 34 35 35 36 37 38 38 36 35 35 36 37 38 40 43 45 47 48
51 52 53 51 49 47 45 43 40 36 34 34 38 48 55 53 49 48 46 43 43 43 41 40 39 39 39 38 35 34 34 35 35 35 36 38 39 39 40 40 39 38 36 34 34 35 37 37 38 38 39 39 38 37 37 37 38 39 41 45 47 49 51
53 52 51 50 46 44 44 42 39 34 31 32 39 48 51 48 46 46 44 41 41 42 41 39 39 39 38 37 37 37 37 38 38 38 38 39 39 40 40 40 38 37 35 35 36 37 39 39 38 39 40 40 41 42 40 38 38 40 43 46 49 52 53
57 52 49 49 46 42 42 41 37 33 33 35 39 43 46 47 46 45 42 40 40 41 40 39 39 39 38 38 39 39 38 39 39 39 39 40 40 41 42 41 39 36 35 36 37 38 39 39 39 40 42 43 44 44 41 39 40 43 46 49 51 54 52
55 52 48 47 45 41 40 41 37 35 34 33 33 37 42 46 46 44 43 42 41 40 40 39 38 37 37 38 39 39 39 40 41 41 41 41 41 41 41 39 37 35 35 37 38 40 42 43 43 43 43 43 44 44 42 42 44 47 50 52 53 51 47
44 48 47 45 43 40 40 41 39 36 33 29 27 32 39 44 45 44 43 42 41 40 39 38 36 34 34 35 36 36 36 38 41 44 45 43 42 42 42 40 39 39 40 42 44 46 46 46 46 45 43 42 44 44 44 45 48 51 53 52 50 45 41
38 39 39 39 40 39 40 41 40 37 32 28 26 29 34 40 43 43 42 41 40 39 39 39 37 34 33 34 35 35 36 37 40 44 44 43 43 43 43 44 45 45 45 46 47 47 46 46 47 46 44 43 44 45 46 49 51 52 51 48 45 43 40
38 33 31 34 37 39 40 40 38 36 32 30 29 30 31 35 39 40 40 40 38 38 39 40 39 37 37 38 39 40 42 44 47 48 47 46 45 44 42 43 45 45 45 44 44 44 44 46 46 46 46 46 47 48 50 51 50 48 47 46 45 43 40
41 35 31 34 37 39 41 40 37 36 36 35 35 35 34 34 36 38 40 41 40 39 39 40 40 40 41 42 42 43 44 45 46 45 43 41 39 38 38 40 41 42 42 43 42 42 44 45 47 47 48 49 50 50 49 47 45 44 44 43 43 42 40
41 37 33 35 37 38 43 44 39 39 42 43 42 41 40 39 38 38 39 42 43 43 42 42 42 41 41 40 39 39 40 39 37 35 34 35 36 37 38 40 40 41 41 41 42 43 45 47 48 50 50 50 50 47 44 42 42 42 41 41 41 42 42
37 36 33 34 34 33 37 44 45 44 46 47 46 44 43 43 42 40 40 42 44 45 45 44 43 42 41 39 38 38 38 37 36 35 36 37 39 40 39 38 38 38 39 40 42 43 43 44 46 47 48 47 45 42 40 40 40 40 41 41 42 42 42
30 31 31 33 33 29 29 38 46 47 47 47 47 46 45 45 43 41 41 42 43 45 45 45 45 44 43 42 41 40 40 40 40 40 40 40 41 41 40 40 40 41 41 41 40 39 38 38 38 39 40 39 39 38 39 40 40 40 41 41 41 40 40
28 28 29 31 35 34 30 33 42 47 48 47 45 45 46 46 45 44 43 44 44 44 44 44 44 44 44 44 43 42 41 40 40 41 42 42 43 42 42 41 40 40 40 39 37 36 36 35 35 35 35 35 36 37 38 38 38 39 39 39 40 41 41
28 29 29 29 32 34 33 32 35 40 46 49 48 47 46 46 47 48 48 48 48 48 48 47 46 45 45 45 45 45 43 41 41 42 43 43 41 38 36 34 34 34 34 33 32 32 33 34 34 35 35 35 36 36 36 36 36 38 39 40 42 43 43
28 30 31 30 29 31 33 34 33 34 38 42 44 44 44 44 45 47 47 47 47 47 47 46 45 44 43 43 44 43 41 40 41 41 41 39 36 33 32 32 32 32 33 33 33 34 35 35 36 36 36 36 36 36 36 36 38 40 42 43 44 45 45
Wind_Direction
223 222 221 219 218 219 221 224 226 225 224 226 228 230 230 232 235 237 238 240 240 232 220 214 213 215 220 226 230 231 236 241 244 253 259 246 232 233 240 251 260 262 269 280 283 286 288 282 274 268 263 262 262 263 263 264 264 266 269 271 270 268 270
222 223 223 221 219 220 221 224 227 226 225 226 227 229 230 231 234 238 239 239 241 241 236 225 223 231 233 235 243 246 246 245 249 266 282 285 268 246 243 252 264 268 272 280 284 290 292 289 284 278 271 270 268 264 262 262 260 260 262 264 267 269 274
222 223 223 222 220 219 221 223 226 227 227 226 225 227 229 230 233 238 240 241 240 240 238 232 233 237 235 234 244 250 250 249 262 279 286 297 294 279 270 267 265 267 272 283 290 292 293 291 286 283 280 277 269 258 254 254 255 256 258 261 265 269 275
221 223 223 223 222 220 220 221 224 226 227 228 227 228 230 232 235 238 241 244 243 240 238 236 236 238 236 232 243 256 260 262 274 281 284 291 291 280 271 265 260 263 272 285 293 293 292 290 288 287 286 279 269 256 247 247 250 252 254 257 260 265 274
219 222 222 222 223 223 222 221 222 224 225 226 227 228 230 233 236 240 243 247 248 245 242 240 239 242 241 236 244 256 260 266 274 275 275 279 279 267 257 257 260 262 271 282 289 291 289 286 288 289 280 267 257 248 241 241 243 245 248 251 257 267 277
219 220 222 223 225 226 225 224 224 225 225 226 227 228 229 231 235 239 243 247 250 248 243 240 239 245 249 246 250 253 252 260 268 273 272 266 264 261 252 252 257 261 268 277 283 288 287 283 284 281 267 250 240 236 235 237 241 245 249 255 264 273 280
220 220 223 224 225 226 227 226 226 226 227 227 228 230 231 232 235 238 241 245 249 248 245 241 239 244 252 254 255 254 251 254 261 269 270 262 260 260 251 246 251 257 264 272 280 286 286 278 272 265 252 239 233 236 241 245 251 255 260 268 275 282 287
220 220 223 225 225 226 226 226 226 225 226 227 229 232 235 237 238 239 241 244 246 247 247 248 247 246 249 253 255 253 247 249 257 262 261 257 259 260 250 242 246 253 260 269 278 284 284 278 270 260 253 248 246 250 254 260 266 269 277 283 287 290 294
220 219 221 223 224 225 225 226 227 226 226 226 228 230 233 236 239 240 243 244 246 247 248 249 252 254 256 257 259 256 250 249 256 258 253 252 255 256 248 243 247 255 260 266 273 278 279 279 276 271 271 271 268 266 267 271 275 280 287 291 294 296 298
223 221 221 222 224 226 226 226 226 227 228 227 227 229 230 234 237 239 241 243 244 246 246 246 250 255 258 259 261 262 254 245 248 250 246 247 251 251 248 247 251 255 257 262 269 271 272 274 276 276 276 277 276 271 271 274 278 286 294 298 301 302 301
228 226 224 223 225 228 229 228 227 226 228 228 228 229 231 233 236 238 239 240 241 243 244 244 247 249 251 253 258 264 258 243 244 247 244 242 244 245 246 248 250 251 255 260 264 264 265 267 271 273 275 277 277 274 274 278 285 293 299 305 306 305 304
232 229 226 224 224 227 230 232 231 229 229 230 230 230 230 231 235 237 239 239 239 240 241 242 246 249 250 253 257 264 262 250 247 248 244 240 239 240 243 243 244 248 254 259 260 259 258 260 263 268 274 278 278 278 279 284 292 298 304 311 312 310 307
235 231 227 224 223 224 227 230 232 231 231 232 232 230 229 230 233 237 239 238 238 239 239 242 247 250 253 256 258 260 258 247 243 242 238 234 235 238 241 242 242 247 254 258 257 254 253 256 258 261 270 277 280 282 282 285 294 301 309 314 314 314 311
236 232 227 224 222 221 221 224 228 230 231 232 233 232 230 231 234 237 239 239 239 238 239 242 246 250 254 256 251 250 248 238 232 232 230 230 234 238 240 244 247 251 256 260 260 257 257 262 262 263 270 276 281 286 285 285 291 297 304 307 307 308 308
234 230 224 220 219 218 218 219 222 225 228 230 231 231 231 231 234 237 239 239 237 236 236 239 242 247 252 249 240 240 243 236 231 233 234 233 235 237 242 250 254 257 261 266 268 266 265 268 271 274 277 279 285 290 288 288 291 294 298 301 301 302 302
231 225 220 217 217 216 216 215 216 220 224 226 228 229 229 230 232 235 238 238 236 233 233 236 239 242 245 239 229 229 233 233 231 236 242 242 240 243 250 255 257 260 264 269 273 271 270 272 276 279 282 286 292 296 296 298 301 301 300 299 299 300 302
228 222 217 218 219 219 217 215 215 217 220 224 226 226 228 229 230 232 235 237 236 233 231 234 237 239 238 231 224 224 228 231 233 238 244 245 245 250 256 257 257 260 265 270 273 272 272 273 275 277 282 289 295 296 299 304 307 306 303 300 299 299 301
228 223 218 218 220 221 222 220 219 218 219 222 225 226 227 227 229 230 233 234 235 232 230 232 236 235 231 224 220 222 227 230 234 240 244 245 248 254 258 258 259 263 268 272 273 273 274 274 274 277 283 289 292 294 298 302 305 306 304 302 301 300 299
227 225 221 221 222 223 224 222 219 217 218 221 225 227 226 226 228 229 230 232 233 231 229 230 231 228 224 221 219 221 225 228 232 238 243 246 249 252 256 259 262 265 267 269 269 271 274 275 276 279 283 287 289 292 296 299 301 303 303 303 303 301 300
228 226 225 225 225 224 223 220 216 216 218 220 224 226 226 225 225 227 228 229 230 229 227 226 224 221 220 220 220 221 224 228 232 237 241 245 246 247 249 253 256 257 258 260 264 269 273 274 275 277 279 282 286 290 294 296 298 300 301 302 302 302 301
230 228 228 227 226 225 224 221 218 218 219 221 224 227 227 225 224 225 226 226 227 227 226 224 222 221 221 221 221 223 226 228 232 236 239 241 241 240 240 243 246 250 254 259 265 270 270 269 270 272 274 278 284 289 292 294 296 297 299 300 301 301 301
230 230 230 230 228 227 227 225 222 221 222 223 225 228 228 226 223 223 223 223 226 228 226 225 226 225 223 222 223 226 229 231 233 236 237 236 237 238 241 246 251 255 258 262 265 265 264 265 267 269 272 277 283 288 290 292 294 296 298 300 300 300 300
229 230 230 231 231 229 228 227 226 226 226 227 229 231 230 226 223 222 221 223 225 227 227 228 229 227 226 226 227 229 231 234 237 239 239 237 236 239 244 249 253 256 258 260 262 261 261 263 265 269 274 279 283 284 285 288 292 294 297 299 299 300 301
229 230 231 232 233 232 230 227 227 227 228 231 233 233 231 226 222 219 219 222 225 226 227 229 229 228 228 228 229 230 230 233 237 239 240 239 239 240 244 247 250 253 255 256 257 258 260 264 268 273 277 279 281 281 284 288 290 293 296 298 299 300 301
230 230 230 232 233 232 230 226 226 227 229 233 235 235 232 227 221 217 217 222 226 227 229 229 228 228 227 227 228 230 231 234 238 240 241 240 240 240 242 244 247 249 250 253 256 259 264 267 271 274 276 278 280 283 285 288 291 294 298 299 300 301 301
228 229 230 231 232 232 228 224 223 226 231 236 239 237 232 225 221 218 218 222 226 227 229 231 229 228 227 229 233 235 237 240 242 244 244 244 243 243 245 247 250 250 252 255 259 262 265 266 268 271 274 278 283 285 285 288 292 296 298 300 301 301 299
223 227 228 228 229 229 225 220 220 225 231 236 237 234 228 223 221 220 220 222 225 227 229 229 227 226 230 235 239 242 244 247 248 248 249 248 247 248 248 248 248 249 251 255 257 260 263 266 267 269 272 277 282 284 285 289 294 296 298 299 299 299 297
218 222 225 226 226 225 220 217 218 223 227 231 232 230 226 222 221 221 222 223 226 228 227 225 225 229 235 239 242 243 244 246 248 248 248 246 245 245 244 243 244 248 253 257 259 262 266 269 269 269 271 276 280 282 286 291 294 296 297 298 297 296 294
217 217 221 221 219 217 214 214 217 221 223 223 223 225 226 225 223 224 225 226 228 229 227 225 226 231 235 235 237 239 240 241 243 245 244 243 243 243 244 248 254 258 261 263 264 265 268 270 272 274 276 279 280 283 288 293 295 295 295 294 293 292 290
216 211 214 211 208 209 211 211 215 220 220 218 215 216 221 225 226 226 228 229 231 231 231 230 230 234 236 237 240 244 245 245 247 248 247 246 247 248 252 259 263 263 263 264 263 264 267 271 274 277 278 279 282 286 290 292 292 291 291 290 289 288 287
217 215 218 210 206 209 210 210 213 216 216 213 210 211 214 218 223 225 227 229 231 232 232 233 235 238 242 244 246 247 248 250 251 252 251 250 250 251 254 258 260 260 259 260 262 264 269 273 276 278 279 281 284 286 288 288 288 287 287 286 284 284 286
224 225 222 211 205 208 211 210 210 213 212 209 207 209 211 214 217 222 224 226 229 231 232 233 235 238 242 244 244 244 246 249 249 247 245 245 245 244 244 247 251 253 256 261 267 271 275 277 278 279 280 282 283 283 283 283 283 283 283 283 283 284 286
233 234 230 216 205 204 207 208 209 211 212 209 207 209 212 213 215 218 221 224 227 229 231 233 234 237 239 241 240 240 242 244 244 243 243 245 246 246 244 245 249 255 261 268 273 275 277 279 279 279 279 279 280 279 279 280 280 280 281 283 284 284 284
237 238 237 227 216 211 207 204 206 210 212 210 209 212 216 217 216 215 217 222 226 230 233 236 238 238 238 239 239 238 239 241 244 247 249 250 251 250 250 252 255 260 266 270 271 273 275 277 278 278 277 276 276 276 277 278 279 280 282 283 283 283 283
231 234 236 232 230 232 227 212 207 209 213 214 215 217 219 222 222 221 221 224 227 229 231 234 235 236 235 235 237 238 239 242 246 250 252 253 254 254 255 258 261 264 266 268 269 272 274 276 277 277 276 275 274 274 276 278 280 281 281 282 282 282 281
225 228 232 233 234 239 239 231 222 219 217 216 217 218 220 224 226 226 225 224 226 227 228 227 228 230 232 234 237 239 238 239 243 248 252 254 255 256 257 259 262 263 263 265 267 270 272 274 275 276 276 275 274 273 274 275 276 277 279 280 281 280 280
220 223 228 230 230 232 234 233 234 232 227 222 218 217 220 224 226 224 222 221 223 227 228 227 227 230 234 239 242 243 244 245 248 253 255 256 256 256 257 259 261 261 262 264 267 269 271 272 273 272 272 271 271 270 271 272 274 276 277 278 278 278 278
Height
5838 5843 5846 5851 5853 5855 5857 5859 5859 5862 5868 5872 5872 5871 5873 5875 5875 5874 5874 5876 5879 5883 5886 5889 5892 5894 5896 5897 5898 5899 5900 5900 5901 5901 5901 5901 5900 5901 5901 5901 5902 5902 5902 5902 5902 5901 5901 5901 5901 5901 5901 5901 5901 5901 5901 5901 5901 5902 5902 5902 5902 5903 5903
5833 5839 5843 5846 5849 5851 5853 5853 5856 5862 5866 5866 5867 5868 5868 5870 5870 5868 5869 5873 5876 5878 5881 5885 5889 5891 5893 5895 5896 5897 5898 5898 5899 5899 5899 5899 5899 5899 5899 5899 5899 5900 5900 5900 5900 5900 5899 5899 5899 5899 5899 5899 5899 5899 5899 5898 5899 5899 5899 5900 5900 5901 5902
5828 5833 5836 5838 5842 5845 5846 5849 5854 5858 5858 5859 5862 5862 5861 5864 5864 5863 5865 5869 5871 5874 5877 5882 5886 5888 5890 5893 5894 5895 5896 5896 5896 5897 5897 5897 5897 5897 5897 5897 5897 5897 5898 5898 5898 5898 5897 5897 5897 5897 5897 5897 5897 5896 5896 5896 5896 5897 5897 5898 5899 5899 5900
5821 5824 5826 5829 5834 5838 5840 5844 5848 5850 5852 5855 5858 5858 5858 5860 5861 5860 5862 5864 5865 5870 5875 5879 5883 5885 5887 5889 5891 5892 5893 5893 5894 5894 5895 5895 5895 5895 5895 5896 5896 5896 5896 5896 5896 5896 5895 5895 5895 5895 5895 5895 5894 5894 5894 5894 5894 5895 5896 5896 5896 5897 5898
5813 5815 5818 5823 5829 5833 5835 5838 5839 5842 5846 5849 5852 5854 5855 5856 5857 5858 5859 5858 5860 5867 5874 5877 5880 5882 5884 5886 5888 5890 5890 5891 5891 5892 5893 5893 5894 5894 5894 5894 5894 5894 5894 5894 5894 5894 5893 5893 5893 5893 5893 5893 5892 5892 5892 5892 5892 5893 5893 5894 5895 5895 5896
5808 5811 5815 5820 5825 5828 5831 5834 5836 5839 5843 5845 5848 5848 5849 5851 5853 5853 5855 5854 5856 5863 5870 5873 5876 5879 5881 5883 5885 5887 5888 5888 5889 5890 5890 5891 5892 5892 5892 5892 5892 5892 5892 5892 5892 5892 5891 5891 5891 5891 5891 5890 5890 5890 5890 5890 5890 5891 5891 5892 5893 5894 5894
5805 5810 5812 5815 5818 5821 5825 5828 5832 5836 5839 5841 5842 5842 5844 5848 5849 5849 5851 5851 5852 5858 5865 5870 5873 5876 5878 5880 5881 5884 5885 5886 5886 5887 5888 5889 5889 5890 5890 5890 5890 5889 5890 5890 5890 5890 5889 5889 5889 5889 5889 5889 5888 5888 5888 5888 5889 5889 5890 5891 5891 5891 5891
5801 5804 5805 5807 5810 5813 5816 5819 5824 5828 5831 5835 5839 5840 5843 5845 5844 5846 5848 5847 5849 5855 5862 5867 5870 5872 5875 5876 5878 5881 5882 5883 5884 5885 5886 5886 5887 5887 5888 5887 5887 5887 5887 5888 5888 5887 5887 5887 5887 5887 5887 5887 5886 5886 5886 5886 5886 5887 5888 5888 5889 5888 5888
5794 5795 5796 5799 5802 5805 5808 5812 5817 5821 5825 5831 5834 5836 5839 5838 5837 5842 5844 5842 5845 5853 5860 5864 5866 5868 5871 5873 5875 5877 5879 5881 5882 5883 5884 5884 5884 5885 5885 5885 5885 5885 5885 5886 5886 5885 5885 5885 5885 5885 5884 5884 5884 5884 5883 5884 5884 5884 5885 5885 5885 5885 5885
5787 5789 5791 5795 5799 5801 5804 5807 5811 5815 5819 5823 5826 5829 5831 5829 5830 5836 5837 5837 5843 5851 5856 5860 5863 5865 5868 5869 5871 5873 5875 5878 5879 5880 5881 5881 5881 5882 5882 5883 5883 5883 5883 5883 5883 5883 5883 5883 5882 5882 5882 5881 5881 5881 5881 5881 5881 5882 5882 5883 5883 5882 5882
5784 5788 5791 5795 5798 5798 5799 5802 5806 5809 5812 5815 5819 5822 5822 5823 5827 5829 5831 5836 5842 5847 5852 5856 5859 5862 5864 5866 5868 5870 5872 5874 5876 5877 5877 5878 5878 5879 5879 5880 5880 5880 5880 5880 5881 5881 5881 5880 5880 5879 5879 5879 5878 5878 5878 5879 5879 5880 5880 5880 5880 5879 5879
5781 5786 5790 5793 5793 5793 5796 5799 5803 5805 5808 5810 5813 5814 5816 5821 5823 5823 5828 5835 5839 5842 5848 5852 5855 5858 5860 5862 5865 5867 5869 5871 5872 5873 5874 5874 5875 5876 5876 5877 5878 5878 5878 5878 5879 5879 5879 5878 5877 5877 5876 5876 5876 5876 5876 5877 5877 5877 5877 5877 5877 5876 5875
5778 5782 5786 5788 5788 5788 5791 5794 5798 5801 5803 5805 5807 5810 5814 5818 5817 5819 5827 5833 5834 5838 5845 5848 5851 5854 5857 5859 5862 5864 5865 5866 5868 5869 5870 5871 5872 5873 5873 5874 5875 5875 5875 5875 5876 5876 5876 5876 5875 5875 5874 5874 5874 5874 5874 5875 5875 5875 5875 5875 5874 5873 5873
5773 5778 5781 5782 5783 5783 5785 5787 5791 5795 5798 5799 5802 5806 5811 5813 5814 5818 5825 5827 5829 5835 5841 5845 5848 5851 5853 5856 5859 5860 5861 5863 5864 5866 5867 5868 5869 5870 5871 5871 5872 5873 5872 5872 5873 5874 5874 5873 5872 5872 5872 5872 5872 5872 5872 5873 5873 5873 5873 5872 5872 5871 5870
5768 5773 5776 5776 5777 5778 5779 5781 5785 5789 5792 5794 5797 5801 5805 5808 5811 5815 5819 5821 5824 5831 5837 5841 5844 5846 5849 5852 5855 5857 5859 5860 5861 5862 5863 5864 5866 5867 5868 5868 5869 5869 5869 5869 5870 5871 5871 5870 5870 5870 5870 5870 5870 5870 5871 5871 5871 5871 5870 5869 5869 5868 5867
5764 5768 5771 5770 5772 5773 5773 5774 5778 5782 5786 5788 5792 5795 5799 5802 5807 5811 5813 5814 5818 5827 5833 5836 5839 5842 5845 5849 5851 5853 5855 5856 5858 5859 5860 5861 5862 5864 5865 5865 5866 5866 5866 5866 5867 5867 5867 5867 5867 5867 5867 5867 5868 5868 5868 5868 5868 5868 5867 5866 5865 5864 5863
5760 5764 5765 5765 5767 5765 5764 5768 5774 5778 5781 5784 5787 5790 5793 5797 5802 5805 5806 5809 5815 5824 5829 5831 5834 5838 5841 5845 5847 5849 5851 5853 5855 5856 5857 5858 5859 5860 5861 5862 5862 5862 5862 5863 5863 5863 5864 5864 5864 5864 5864 5864 5864 5865 5865 5864 5864 5864 5863 5862 5861 5860 5859
5756 5759 5760 5760 5759 5758 5761 5770 5775 5775 5777 5780 5782 5785 5789 5793 5796 5798 5802 5807 5813 5819 5823 5827 5831 5834 5837 5841 5843 5845 5847 5849 5851 5853 5854 5855 5856 5857 5858 5858 5858 5859 5859 5859 5859 5859 5860 5860 5860 5860 5860 5860 5860 5860 5861 5860 5860 5859 5859 5858 5857 5856 5855
5752 5755 5756 5756 5755 5757 5764 5770 5771 5771 5773 5776 5778 5781 5784 5788 5791 5795 5799 5804 5808 5814 5820 5824 5827 5830 5833 5835 5838 5840 5842 5845 5847 5849 5850 5851 5853 5854 5854 5854 5854 5855 5855 5855 5855 5855 5855 5855 5856 5856 5856 5856 5856 5856 5856 5856 5855 5855 5854 5853 5852 5851 5850
5748 5751 5752 5751 5752 5757 5762 5765 5766 5768 5770 5772 5774 5775 5778 5782 5787 5791 5795 5801 5806 5811 5816 5819 5822 5825 5828 5830 5832 5835 5837 5840 5842 5845 5846 5848 5849 5849 5850 5850 5850 5851 5851 5851 5851 5851 5851 5851 5851 5851 5852 5852 5852 5852 5852 5851 5851 5850 5849 5848 5847 5846 5845
5743 5745 5746 5747 5750 5754 5758 5760 5763 5766 5767 5769 5771 5772 5774 5779 5783 5787 5793 5798 5803 5807 5812 5815 5818 5821 5823 5825 5828 5830 5833 5835 5838 5840 5841 5843 5844 5844 5844 5844 5845 5845 5846 5846 5846 5847 5847 5847 5847 5847 5847 5847 5847 5847 5847 5847 5846 5845 5844 5844 5842 5841 5839
5737 5740 5741 5743 5747 5751 5755 5758 5761 5763 5765 5767 5768 5769 5770 5775 5780 5785 5790 5796 5800 5804 5808 5811 5814 5816 5818 5820 5823 5827 5829 5832 5833 5835 5836 5837 5838 5838 5839 5839 5840 5840 5841 5842 5842 5842 5842 5843 5843 5843 5843 5843 5843 5843 5843 5842 5841 5840 5839 5838 5837 5835 5834
5733 5735 5737 5739 5743 5748 5752 5755 5758 5760 5762 5764 5766 5765 5765 5771 5778 5783 5788 5793 5797 5801 5804 5807 5809 5811 5814 5817 5820 5824 5826 5827 5829 5830 5831 5832 5833 5833 5834 5834 5835 5836 5836 5837 5838 5838 5838 5838 5838 5838 5838 5838 5839 5839 5838 5838 5837 5835 5834 5833 5831 5830 5828
5728 5730 5732 5736 5740 5745 5748 5751 5754 5757 5759 5761 5761 5760 5762 5770 5777 5781 5785 5790 5793 5797 5800 5803 5805 5807 5810 5814 5817 5819 5821 5822 5824 5825 5826 5827 5827 5828 5828 5828 5829 5831 5832 5833 5833 5833 5833 5833 5834 5834 5834 5833 5833 5833 5833 5833 5832 5831 5829 5828 5826 5824 5822
5724 5727 5729 5732 5737 5741 5744 5747 5750 5753 5756 5757 5756 5758 5763 5769 5774 5777 5782 5786 5789 5792 5796 5799 5801 5804 5807 5810 5812 5813 5815 5817 5818 5820 5821 5821 5822 5823 5823 5823 5824 5826 5827 5828 5828 5828 5828 5829 5829 5828 5828 5828 5828 5828 5828 5828 5826 5825 5823 5822 5820 5818 5816
5720 5724 5726 5728 5733 5737 5740 5744 5747 5750 5751 5752 5754 5758 5762 5766 5770 5774 5778 5782 5785 5789 5792 5795 5797 5800 5803 5805 5807 5809 5811 5812 5814 5815 5816 5816 5817 5818 5818 5820 5821 5822 5823 5823 5824 5824 5823 5823 5823 5823 5823 5822 5823 5823 5823 5822 5820 5819 5817 5815 5814 5812 5810
5717 5720 5722 5724 5729 5734 5737 5741 5743 5745 5747 5749 5752 5756 5759 5762 5766 5770 5774 5778 5781 5784 5787 5790 5792 5795 5798 5800 5802 5804 5806 5808 5809 5810 5811 5812 5813 5814 5815 5816 5817 5817 5818 5819 5818 5818 5818 5817 5817 5817 5817 5817 5817 5817 5816 5815 5814 5812 5811 5809 5808 5806 5804
5713 5716 5718 5721 5726 5730 5733 5736 5739 5740 5743 5747 5750 5752 5755 5759 5763 5767 5770 5774 5777 5779 5782 5785 5787 5790 5793 5795 5797 5799 5801 5802 5803 5804 5805 5807 5808 5809 5809 5810 5811 5812 5813 5813 5813 5812 5812 5812 5812 5811 5811 5811 5811 5810 5809 5808 5807 5806 5804 5803 5801 5800 5798
5710 5713 5715 5718 5721 5725 5729 5732 5735 5737 5740 5743 5746 5749 5752 5755 5759 5763 5766 5769 5773 5775 5778 5780 5782 5784 5787 5789 5791 5793 5795 5796 5797 5798 5799 5801 5802 5803 5803 5805 5806 5806 5807 5807 5807 5807 5806 5806 5806 5806 5805 5805 5804 5804 5803 5802 5801 5799 5798 5797 5796 5795 5793
5707 5710 5712 5714 5716 5720 5725 5728 5731 5733 5736 5740 5743 5746 5749 5752 5755 5759 5762 5765 5768 5771 5773 5775 5777 5780 5782 5784 5786 5787 5789 5790 5791 5792 5793 5795 5796 5797 5798 5799 5800 5801 5801 5801 5801 5802 5802 5802 5801 5800 5799 5798 5797 5797 5796 5795 5794 5793 5792 5791 5790 5789 5788
5704 5707 5709 5711 5713 5716 5720 5724 5727 5730 5732 5735 5738 5742 5745 5748 5751 5755 5758 5760 5763 5766 5768 5771 5773 5775 5777 5779 5780 5782 5783 5783 5784 5785 5787 5788 5790 5791 5792 5793 5794 5795 5795 5796 5796 5796 5796 5795 5794 5793 5792 5792 5791 5791 5790 5789 5788 5787 5786 5786 5785 5784 5783
5700 5703 5706 5708 5710 5713 5716 5719 5722 5725 5727 5730 5733 5736 5740 5744 5747 5750 5753 5755 5758 5760 5762 5764 5767 5769 5771 5773 5774 5776 5777 5778 5778 5779 5781 5782 5783 5785 5786 5787 5788 5789 5790 5791 5791 5790 5789 5788 5787 5786 5786 5786 5785 5785 5784 5783 5782 5782 5781 5781 5780 5779 5778
5696 5700 5703 5706 5708 5709 5711 5714 5717 5721 5724 5726 5728 5732 5735 5739 5741 5744 5747 5750 5752 5755 5757 5759 5761 5763 5764 5766 5768 5769 5771 5772 5773 5774 5776 5777 5778 5779 5781 5782 5783 5784 5785 5785 5784 5784 5783 5783 5782 5781 5780 5780 5779 5779 5778 5777 5777 5777 5776 5776 5775 5774 5772
5692 5696 5700 5703 5706 5707 5708 5710 5712 5716 5719 5722 5724 5727 5731 5734 5736 5739 5742 5744 5747 5750 5752 5754 5756 5757 5759 5760 5761 5763 5764 5766 5768 5769 5771 5772 5773 5774 5776 5777 5777 5778 5779 5779 5779 5778 5778 5777 5776 5775 5774 5773 5773 5772 5772 5771 5771 5771 5770 5770 5769 5768 5767
5689 5692 5695 5698 5701 5703 5705 5708 5709 5711 5715 5718 5721 5724 5727 5730 5732 5734 5737 5739 5742 5744 5746 5748 5750 5752 5754 5755 5756 5758 5760 5761 5763 5765 5766 5767 5769 5770 5770 5771 5772 5772 5772 5773 5773 5772 5771 5771 5770 5769 5768 5767 5766 5766 5765 5765 5765 5765 5764 5764 5763 5762 5761
5685 5687 5690 5694 5697 5699 5702 5705 5708 5709 5711 5714 5716 5719 5722 5725 5727 5729 5731 5733 5735 5737 5739 5741 5743 5746 5748 5750 5751 5752 5755 5757 5758 5759 5761 5763 5764 5765 5765 5766 5766 5766 5766 5766 5766 5766 5765 5764 5764 5763 5762 5761 5761 5760 5759 5759 5758 5758 5758 5758 5757 5757 5756
5681 5684 5687 5690 5692 5694 5696 5699 5704 5707 5709 5711 5713 5714 5717 5719 5722 5724 5726 5728 5730 5732 5734 5735 5737 5740 5743 5745 5747 5748 5750 5752 5753 5754 5756 5757 5758 5759 5759 5760 5760 5761 5761 5761 5760 5760 5759 5758 5758 5757 5756 5755 5755 5754 5753 5753 5752 5752 5752 5751 5751 5750 5750